Location: Bratsk-Energetik
(56.3300°N, 101.7600°E)
Time: 23:03:51
(UTC+08:00)

ISS - Pass Details

Date: 08 May 2021
Orbit: 417 x 422 km, 51.6° (Epoch: 13 June)

Event Time Altitude Azimuth Distance (km) Brightness Sun altitude
Exits shadow 04:09:24 - 250° (WSW) 1,662 -1.3 -7.5°
Reaches altitude 10° 04:09:48 10° 247° (WSW) 1,507 -1.5 -7.5°
Maximum altitude 04:12:57 37° 179° (S) 674 -3.1 -7.2°
Drops below altitude 10° 04:16:07 10° 110° (ESE) 1,510 -0.6 -6.9°
Sets 04:18:18 0° 102° (ESE) 2,375 0.6 -6.7°
